User: anonymous   Login
Location: Cluny
(50.9333°N, 112.8167°W)
Time: 18:19:19
(UTC-06:00)
Language:

Cosmos 1743 Rocket - Orbit

View from above orbital plane
View from above orbital plane
View from above satellite
View from above satellite

Ground track
Ground track

The orbit data is extracted from the following two-line orbital elements,

1 16720U 86034B   17175.61901458 +.00000074 +00000-0 +60851-5 0  9998
2 16720 082.5542 234.5679 0021793 078.1588 073.0123 14.83292680659277
Epoch (UTC): 24 June 2017 14:51:22
Eccentricity: 0.0021793
inclination: 82.5542°
perigee height: 604 km
apogee height: 634 km
right ascension of ascending node: 234.5679°
argument of perigee: 78.1588°
revolutions per day: 14.83292680
mean anomaly at epoch: 73.0123°
orbit number at epoch: 65927

The dashed part of the orbit path shows where the satellite is in the earth's shadow,  

DLR